Location: USNO
(38.9242°N, 77.0663°W)
Time: 12:18:18
(UTC-04:00)

ISS - Pass Details

Date: 12 October 2017
Orbit: 401 x 408 km, 51.6° (Epoch: 21 October)

Event Time Altitude Azimuth Distance (km) Brightness Sun altitude
Rises 19:34:13 0° 314° (NW) 2,325 0.8 -12.6°
Reaches altitude 10° 19:36:27 10° 325° (NW) 1,464 -0.5 -13.0°
Maximum altitude 19:39:26 32° 31° (NNE) 723 -2.8 -13.6°
Enters shadow 19:40:30 25° 68° (ENE) 854 -2.7 -13.8°
